Simultaneous Nadir Overpasses (SNOs) Predictions

Prediction of SNOs between METOP-A and TERRA Satellite Orbit:

Table of predicted SNOs for the next 14.0 days since TLE Epoch: 1/4/2014
Index Date (METOP-A) Time (METOP-A) Lat,Lon (METOP-A) SZA (METOP-A ) Date (TERRA) Time (TERRA) Lat,Lon (TERRA) SZA (TERRA ) Distance(km) Time Diff (sec)
1 01/06/2014 22:51:06 81.33,-115.12 106.25 01/06/2014 22:51:14 81.33,-115.18 106.24 0.98 8
2 01/06/2014 23:41:46 -81.33, 52.41 73.74 01/06/2014 23:40:41 -81.33, 52.38 73.78 0.99 65
3 01/09/2014 17:35:03 -81.20, 137.47 74.90 01/09/2014 17:36:17 -80.98, 138.05 74.99 25.99 74
4 01/09/2014 18:25:27 81.33, -48.60 105.85 01/09/2014 18:25:28 81.33, -48.74 105.83 2.36 1
5 01/09/2014 19:16:07 -81.33, 118.93 74.14 01/09/2014 19:14:55 -81.33, 118.84 74.19 1.77 72
6 01/1
